• In Uzbekistan
  • List of Countries
  • For 7 days
  • Water Temperature
  • Satellite Maps
  • Weather Map
  • Weather Widgets
  • user-avatar
    Login

    Hourly Weather Fier

    Today, 26 February, Sunday

    Time Temperature Precipitation Wind Pressure Humidity
    00:00 +11°C° 0 mm 3 mps 762 mmHg 82%
    01:00 +11°C° 0 mm 4 mps 762 mmHg 80%
    02:00 +11°C° 0 mm 4 mps 762 mmHg 81%
    03:00 +11°C° 0 mm 4 mps 762 mmHg 81%
    04:00 +11°C° 0 mm 3 mps 762 mmHg 81%
    05:00 +11°C° 0 mm 3 mps 763 mmHg 81%
    06:00 +11°C° 0 mm 3 mps 763 mmHg 81%
    07:00 +11°C° 0 mm 3 mps 763 mmHg 80%
    08:00 +13°C° 0 mm 3 mps 763 mmHg 76%
    09:00 +14°C° 0 mm 3 mps 763 mmHg 72%
    10:00 +17°C° 0 mm 3 mps 763 mmHg 68%
    11:00 +18°C° 0 mm 3 mps 763 mmHg 63%
    12:00 +19°C° 0 mm 3 mps 763 mmHg 58%
    13:00 +20°C° 0 mm 2 mps 763 mmHg 54%
    14:00 +19°C° 0 mm 3 mps 763 mmHg 58%
    15:00 +19°C° 0 mm 3 mps 763 mmHg 61%
    16:00 +18°C° 0 mm 3 mps 762 mmHg 65%
    17:00 +17°C° 0 mm 3 mps 763 mmHg 71%
    18:00 +16°C° 0 mm 2 mps 763 mmHg 78%
    19:00 +14°C° 0 mm 2 mps 763 mmHg 84%
    20:00 +14°C° 0.1 mm 2 mps 763 mmHg 85%
    21:00 +14°C° 0.1 mm 1 mps 763 mmHg 86%
    22:00 +13°C° 0.1 mm 1 mps 763 mmHg 87%
    23:00 +13°C° 0 mm 2 mps 763 mmHg 88%

    Tomorrow, 27 February, Monday

    Time Temperature Precipitation Wind Pressure Humidity
    00:00 +12°C° 0 mm 2 mps 763 mmHg 88%
    01:00 +11°C° 0 mm 3 mps 763 mmHg 89%
    02:00 +11°C° 0 mm 3 mps 762 mmHg 87%
    03:00 +11°C° 0 mm 3 mps 762 mmHg 86%
    04:00 +10°C° 0 mm 3 mps 762 mmHg 84%
    05:00 +11°C° 0 mm 3 mps 762 mmHg 83%
    06:00 +12°C° 0 mm 2 mps 762 mmHg 81%
    07:00 +12°C° 0 mm 2 mps 762 mmHg 80%
    08:00 +14°C° 0 mm 2 mps 762 mmHg 73%
    09:00 +16°C° 0 mm 1 mps 762 mmHg 66%
    10:00 +20°C° 0 mm 1 mps 762 mmHg 58%
    11:00 +20°C° 0 mm 1 mps 762 mmHg 56%
    12:00 +21°C° 0 mm 1 mps 762 mmHg 53%
    13:00 +20°C° 0 mm 2 mps 761 mmHg 50%
    14:00 +20°C° 0 mm 2 mps 761 mmHg 54%
    15:00 +19°C° 0 mm 2 mps 761 mmHg 57%
    16:00 +19°C° 0 mm 2 mps 761 mmHg 61%
    17:00 +18°C° 0 mm 1 mps 761 mmHg 68%
    18:00 +15°C° 0 mm 1 mps 761 mmHg 75%
    19:00 +13°C° 0 mm 1 mps 761 mmHg 83%
    20:00 +13°C° 0 mm 1 mps 761 mmHg 83%
    21:00 +12°C° 0 mm 1 mps 762 mmHg 84%
    22:00 +12°C° 0 mm 1 mps 762 mmHg 84%
    23:00 +12°C° 0 mm 1 mps 762 mmHg 84%

    Day after tomorrow, 28 February, Tuesday

    Time Temperature Precipitation Wind Pressure Humidity
    00:00 +11°C° 0 mm 1 mps 761 mmHg 85%
    01:00 +11°C° 0 mm 1 mps 761 mmHg 85%
    02:00 +11°C° 0 mm 1 mps 761 mmHg 85%
    03:00 +10°C° 0 mm 1 mps 761 mmHg 85%
    04:00 +10°C° 0 mm 1 mps 761 mmHg 85%
    05:00 +10°C° 0 mm 2 mps 761 mmHg 83%
    06:00 +10°C° 0 mm 2 mps 761 mmHg 81%
    07:00 +10°C° 0 mm 2 mps 761 mmHg 80%
    08:00 +13°C° 0 mm 3 mps 761 mmHg 72%
    09:00 +16°C° 0 mm 3 mps 761 mmHg 64%
    10:00 +18°C° 0 mm 3 mps 761 mmHg 57%
    11:00 +18°C° 0 mm 4 mps 761 mmHg 56%
    12:00 +19°C° 0 mm 4 mps 761 mmHg 55%
    13:00 +19°C° 0 mm 5 mps 760 mmHg 54%
    14:00 +19°C° 0 mm 5 mps 760 mmHg 57%
    15:00 +17°C° 0 mm 5 mps 760 mmHg 60%
    16:00 +17°C° 0 mm 5 mps 759 mmHg 63%
    17:00 +15°C° 0 mm 5 mps 759 mmHg 70%
    18:00 +14°C° 0 mm 5 mps 760 mmHg 77%
    19:00 +12°C° 0 mm 5 mps 760 mmHg 85%
    20:00 +12°C° 0 mm 5 mps 760 mmHg 85%
    21:00 +11°C° 0 mm 6 mps 760 mmHg 86%
    22:00 +10°C° 0 mm 6 mps 760 mmHg 87%
    23:00 +10°C° 0 mm 6 mps 760 mmHg 87%

    1 March, Wednesday

    Time Temperature Precipitation Wind Pressure Humidity
    00:00 +10°C° 0 mm 6 mps 760 mmHg 88%
    01:00 +10°C° 0 mm 6 mps 760 mmHg 88%
    02:00 +10°C° 0 mm 6 mps 759 mmHg 88%
    03:00 +10°C° 0 mm 6 mps 759 mmHg 88%
    04:00 +10°C° 0 mm 6 mps 759 mmHg 88%
    05:00 +10°C° 0 mm 6 mps 759 mmHg 88%
    06:00 +10°C° 0 mm 6 mps 759 mmHg 87%
    07:00 +10°C° 0 mm 6 mps 759 mmHg 87%
    08:00 +11°C° 0.2 mm 6 mps 758 mmHg 83%
    09:00 +14°C° 0.2 mm 6 mps 758 mmHg 79%
    10:00 +15°C° 0.2 mm 7 mps 758 mmHg 75%
    11:00 +15°C° 0.5 mm 7 mps 758 mmHg 75%
    12:00 +15°C° 0.5 mm 7 mps 757 mmHg 74%
    13:00 +15°C° 0.5 mm 7 mps 757 mmHg 74%
    14:00 +14°C° 1.5 mm 6 mps 757 mmHg 78%
    15:00 +13°C° 1.5 mm 6 mps 757 mmHg 83%
    16:00 +12°C° 1.5 mm 5 mps 757 mmHg 87%
    17:00 +11°C° 0.4 mm 4 mps 758 mmHg 87%
    18:00 +10°C° 0.4 mm 4 mps 758 mmHg 87%
    19:00 +9°C° 0.4 mm 3 mps 759 mmHg 86%
    20:00 +9°C° 0 mm 3 mps 760 mmHg 84%
    21:00 +8°C° 0 mm 3 mps 760 mmHg 82%
    22:00 +8°C° 0 mm 2 mps 761 mmHg 80%
    23:00 +7°C° 0 mm 2 mps 761 mmHg 80%

    2 March, Thursday

    Time Temperature Precipitation Wind Pressure Humidity
    00:00 +7°C° 0 mm 2 mps 762 mmHg 80%
    01:00 +7°C° 0 mm 3 mps 762 mmHg 80%
    02:00 +7°C° 0 mm 3 mps 762 mmHg 81%
    03:00 +7°C° 0 mm 3 mps 762 mmHg 82%
    04:00 +5°C° 0 mm 3 mps 762 mmHg 83%
    05:00 +7°C° 0 mm 2 mps 762 mmHg 82%
    06:00 +7°C° 0 mm 2 mps 763 mmHg 81%
    07:00 +7°C° 0 mm 2 mps 763 mmHg 81%
    08:00 +9°C° 0 mm 2 mps 763 mmHg 72%
    09:00 +12°C° 0 mm 2 mps 763 mmHg 62%
    10:00 +14°C° 0 mm 1 mps 764 mmHg 53%
    11:00 +15°C° 0 mm 1 mps 763 mmHg 50%
    12:00 +15°C° 0 mm 1 mps 763 mmHg 46%
    13:00 +16°C° 0 mm 2 mps 763 mmHg 43%
    14:00 +16°C° 0 mm 2 mps 763 mmHg 45%
    15:00 +15°C° 0 mm 2 mps 763 mmHg 47%
    16:00 +15°C° 0 mm 2 mps 763 mmHg 49%
    17:00 +13°C° 0 mm 1 mps 763 mmHg 54%
    18:00 +11°C° 0 mm 1 mps 763 mmHg 60%
    19:00 +9°C° 0 mm 1 mps 764 mmHg 66%
    20:00 +9°C° 0 mm 1 mps 764 mmHg 64%
    21:00 +9°C° 0 mm 1 mps 764 mmHg 63%
    22:00 +8°C° 0 mm 1 mps 764 mmHg 61%
    23:00 +8°C° 0 mm 1 mps 764 mmHg 59%

    3 March, Friday

    Time Temperature Precipitation Wind Pressure Humidity
    00:00 +8°C° 0 mm 1 mps 764 mmHg 58%
    01:00 +8°C° 0 mm 1 mps 764 mmHg 56%
    02:00 +8°C° 0 mm 1 mps 764 mmHg 55%
    03:00 +7°C° 0 mm 1 mps 764 mmHg 54%
    04:00 +6°C° 0 mm 0 mps 764 mmHg 53%
    05:00 +8°C° 0 mm 1 mps 764 mmHg 51%
    06:00 +8°C° 0 mm 1 mps 764 mmHg 50%
    07:00 +9°C° 0 mm 1 mps 764 mmHg 48%
    08:00 +11°C° 0 mm 1 mps 764 mmHg 42%
    09:00 +14°C° 0 mm 1 mps 764 mmHg 37%
    10:00 +16°C° 0 mm 1 mps 765 mmHg 31%
    11:00 +18°C° 0 mm 1 mps 764 mmHg 32%
    12:00 +17°C° 0 mm 2 mps 764 mmHg 33%
    13:00 +18°C° 0 mm 2 mps 764 mmHg 33%
    14:00 +17°C° 0 mm 2 mps 764 mmHg 39%
    15:00 +17°C° 0 mm 2 mps 764 mmHg 44%
    16:00 +16°C° 0 mm 2 mps 764 mmHg 49%
    17:00 +14°C° 0 mm 2 mps 764 mmHg 57%
    18:00 +12°C° 0 mm 2 mps 764 mmHg 65%
    19:00 +9°C° 0 mm 2 mps 765 mmHg 73%
    20:00 +9°C° 0 mm 2 mps 765 mmHg 72%
    21:00 +9°C° 0 mm 2 mps 765 mmHg 71%
    22:00 +9°C° 0 mm 2 mps 765 mmHg 70%
    23:00 +9°C° 0 mm 2 mps 765 mmHg 69%
    Show more